Ellsworth, ME

1:30 PM EDT on July 24, 2016 (GMT -0400)
Hancock County-Bar Harbor

Weather History for KBHB - December, 2012

Change the Weather History Date:

Wednesday, December 5, 2012

  Actual Average Record
Temperature  
Mean Temperature 43 °F -  
Max Temperature 53 °F 34 °F 57 °F (1951)
Min Temperature 33 °F 21 °F 7 °F (1974)
Degree Days  
Heating Degree Days 22    
Moisture  
Dew Point 39 °F    
Average Humidity 80    
Maximum Humidity 100    
Minimum Humidity 56    
Precipitation  
Precipitation 0.21 in - - ()
Sea Level Pressure  
Sea Level Pressure 29.87 in    
Wind  
Wind Speed 14 mph (West)    
Max Wind Speed 21 mph    
Max Gust Speed 29 mph    
Visibility 9 miles    
Events      
Averages and records for this station are not official NWS values.
T = Trace of Precipitation, MM = Missing Value Source: NWS Daily Summary

Daily Weather History Graph

Daily Weather History Graph

Search for Another Location

Airport or City:

Trip Planner

Search our weather history database for the weather conditions in past years. The results will help you decide how hot, cold, wet, or windy it might be!

Date:

Astronomy

Dec. 05, 2012 Rise Set
Actual Time 6:54 AM EST 3:54 PM EST
Civil Twilight 6:21 AM EST 4:27 PM EST
Nautical Twilight 5:44 AM EST 5:03 PM EST
Astronomical Twilight 5:09 AM EST 5:38 PM EST
Moon 10:51 PM EST (12/5) 11:05 AM EST (12/5)
Length of Visible Light 10h 05m
Length of Day
8h 59m
Waning Gibbous, 60% of the Moon is Illuminated
Dec 5
Waning Gibbous
Dec 6
Last Quarter
Dec 13
New
Dec 20
First Quarter
Dec 28
Full

Hourly Weather History & Observations

Time (EST) Temp. Windchill Dew Point Humidity Pressure Visibility Wind Dir Wind Speed Gust Speed Precip Events Conditions
12:15 AM 50.0 °F - 50.0 °F 100% 29.98 in 6.0 mi South 15.0 mph 23.0 mph N/A   Overcast
12:35 AM 50.0 °F - 48.2 °F 94% 29.97 in 10.0 mi South 19.6 mph 25.3 mph N/A   Overcast
12:55 AM 51.8 °F - 50.0 °F 94% 29.96 in 10.0 mi SSW 19.6 mph 26.5 mph N/A   Overcast
1:15 AM 50.0 °F - 48.2 °F 94% 29.96 in 10.0 mi South 15.0 mph 19.6 mph N/A   Overcast
1:35 AM 51.8 °F - 50.0 °F 94% 29.94 in 10.0 mi South 16.1 mph 26.5 mph N/A   Overcast
1:55 AM 51.8 °F - 50.0 °F 94% 29.94 in 8.0 mi South 17.3 mph - N/A   Overcast
2:15 AM 51.8 °F - 50.0 °F 94% 29.92 in 5.0 mi South 17.3 mph 23.0 mph N/A   Overcast
2:55 AM 51.8 °F - 51.8 °F 100% 29.90 in 3.0 mi South 12.7 mph 25.3 mph N/A   Overcast
3:15 AM 51.8 °F - 51.8 °F 100% 29.88 in 3.0 mi South 18.4 mph - N/A   Overcast
3:35 AM 51.8 °F - 51.8 °F 100% 29.86 in 3.0 mi South 16.1 mph 21.9 mph N/A   Overcast
3:55 AM 51.8 °F - 51.8 °F 100% 29.85 in 2.5 mi South 16.1 mph 21.9 mph N/A   Overcast
4:15 AM 51.8 °F - 51.8 °F 100% 29.84 in 3.0 mi South 19.6 mph 23.0 mph N/A   Overcast
4:55 AM 51.8 °F - 51.8 °F 100% 29.81 in 7.0 mi SSW 17.3 mph - N/A   Overcast
5:15 AM 51.8 °F - 50.0 °F 94% 29.80 in 7.0 mi SSW 15.0 mph 23.0 mph N/A   Overcast
5:35 AM 51.8 °F - 50.0 °F 94% 29.79 in 7.0 mi SSW 15.0 mph 23.0 mph N/A   Overcast
5:55 AM 53.6 °F - 51.8 °F 94% 29.78 in 7.0 mi South 20.7 mph 24.2 mph N/A   Overcast
6:15 AM 53.6 °F - 51.8 °F 94% 29.77 in 7.0 mi SSW 18.4 mph 23.0 mph N/A   Overcast
6:35 AM 53.6 °F - 53.6 °F 100% 29.76 in 7.0 mi SSW 19.6 mph 23.0 mph N/A   Overcast
6:55 AM 53.6 °F - 51.8 °F 94% 29.75 in 5.0 mi South 20.7 mph 28.8 mph N/A   Overcast
7:15 AM 51.8 °F - 51.8 °F 100% 29.75 in 2.5 mi SSW 13.8 mph - 0.04 in   Overcast
7:35 AM 53.6 °F - 53.6 °F 100% 29.78 in 3.0 mi West 8.1 mph 19.6 mph 0.13 in   Overcast
7:55 AM 51.8 °F - 51.8 °F 100% 29.78 in 9.0 mi WNW 6.9 mph - 0.20 in   Overcast
9:55 AM 50.0 °F - 50.0 °F 100% 29.79 in 10.0 mi West 4.6 mph - 0.01 in   Overcast
10:15 AM 50.0 °F - 50.0 °F 100% 29.79 in 10.0 mi West 5.8 mph - N/A   Overcast
10:35 AM 50.0 °F - 50.0 °F 100% 29.79 in 10.0 mi West 3.5 mph - N/A   Overcast
10:55 AM 50.0 °F - 50.0 °F 100% 29.79 in 10.0 mi WNW 3.5 mph - N/A   Overcast
11:35 AM 51.8 °F - 48.2 °F 88% 29.78 in 10.0 mi West 8.1 mph - N/A   Partly Cloudy
11:55 AM 51.8 °F - 48.2 °F 88% 29.78 in 10.0 mi WNW 5.8 mph - N/A   Scattered Clouds
12:15 PM 51.8 °F - 48.2 °F 88% 29.78 in 10.0 mi WSW 3.5 mph - N/A   Partly Cloudy
12:35 PM 53.6 °F - 48.2 °F 82% 29.79 in 10.0 mi West 5.8 mph - N/A   Mostly Cloudy
12:55 PM 53.6 °F - 46.4 °F 77% 29.78 in 10.0 mi WNW 8.1 mph - N/A   Partly Cloudy
1:55 PM 50.0 °F - 41.0 °F 71% 29.79 in 10.0 mi NW 4.6 mph - N/A   Mostly Cloudy
2:15 PM 48.2 °F - 41.0 °F 76% 29.80 in 10.0 mi Calm Calm - N/A   Mostly Cloudy
2:55 PM 48.2 °F - 37.4 °F 66% 29.81 in 10.0 mi NW 10.4 mph 18.4 mph N/A   Overcast
3:15 PM 46.4 °F 41.5 °F 37.4 °F 71% 29.82 in 10.0 mi NW 10.4 mph 19.6 mph N/A   Overcast
3:36 PM 44.6 °F 38.8 °F 35.6 °F 71% 29.83 in 10.0 mi NW 11.5 mph 18.4 mph N/A   Overcast
3:55 PM 44.6 °F 39.2 °F 35.6 °F 71% 29.84 in 10.0 mi NNW 10.4 mph 16.1 mph N/A   Overcast
4:15 PM 42.8 °F 37.5 °F 33.8 °F 70% 29.85 in 10.0 mi NNW 9.2 mph 16.1 mph N/A   Mostly Cloudy
4:35 PM 42.8 °F 37.5 °F 33.8 °F 70% 29.85 in 10.0 mi NW 9.2 mph - N/A   Scattered Clouds
4:55 PM 42.8 °F 37.0 °F 30.2 °F 61% 29.85 in 10.0 mi NW 10.4 mph 21.9 mph N/A   Mostly Cloudy
5:15 PM 42.8 °F 40.1 °F 30.2 °F 61% 29.86 in 10.0 mi NW 4.6 mph - N/A   Overcast
5:35 PM 42.8 °F 37.0 °F 28.4 °F 57% 29.86 in 10.0 mi NW 10.4 mph 17.3 mph N/A   Overcast
5:56 PM 42.8 °F 37.5 °F 28.4 °F 57% 29.88 in 10.0 mi NW 9.2 mph - N/A   Overcast
6:15 PM 41.0 °F 36.4 °F 28.4 °F 61% 29.89 in 10.0 mi NNW 6.9 mph 19.6 mph N/A   Overcast
6:35 PM 39.2 °F 32.5 °F 28.4 °F 65% 29.90 in 10.0 mi NNW 10.4 mph 19.6 mph N/A   Overcast
6:55 PM 39.2 °F 31.6 °F 28.4 °F 65% 29.90 in 10.0 mi NNW 12.7 mph 20.7 mph N/A   Overcast
7:15 PM 39.2 °F 31.2 °F 28.4 °F 65% 29.91 in 10.0 mi NNW 13.8 mph 23.0 mph N/A   Overcast
7:36 PM 37.4 °F 28.2 °F 26.6 °F 65% 29.91 in 10.0 mi NNW 16.1 mph 19.6 mph N/A   Overcast
7:55 PM 37.4 °F 30.8 °F 26.6 °F 65% 29.92 in 10.0 mi NW 9.2 mph - N/A   Mostly Cloudy
8:15 PM 35.6 °F 26.6 °F 26.6 °F 70% 29.93 in 10.0 mi NNW 13.8 mph 21.9 mph N/A   Partly Cloudy
8:35 PM 35.6 °F 26.6 °F 24.8 °F 65% 29.93 in 10.0 mi NW 13.8 mph 20.7 mph N/A   Partly Cloudy
8:55 PM 35.6 °F 26.6 °F 24.8 °F 65% 29.93 in 10.0 mi NNW 13.8 mph 20.7 mph N/A   Partly Cloudy
9:15 PM 35.6 °F 26.6 °F 24.8 °F 65% 29.94 in 10.0 mi NNW 13.8 mph 20.7 mph N/A   Mostly Cloudy
9:35 PM 35.6 °F 27.5 °F 21.2 °F 56% 29.95 in 10.0 mi NNW 11.5 mph 20.7 mph N/A   Overcast
9:55 PM 33.8 °F 24.8 °F 21.2 °F 60% 29.96 in 10.0 mi NW 12.7 mph 19.6 mph N/A   Overcast
10:15 PM 33.8 °F 25.3 °F 21.2 °F 60% 29.97 in 10.0 mi NNW 11.5 mph 25.3 mph N/A   Overcast
10:35 PM 33.8 °F 24.8 °F 19.4 °F 56% 29.98 in 10.0 mi NW 12.7 mph 18.4 mph N/A   Overcast
10:55 PM 33.8 °F 23.9 °F 19.4 °F 56% 29.98 in 10.0 mi NNW 15.0 mph 21.9 mph N/A   Overcast
11:15 PM 33.8 °F 25.8 °F 21.2 °F 60% 29.98 in 10.0 mi NW 10.4 mph 24.2 mph N/A   Overcast
11:35 PM 33.8 °F 25.8 °F 21.2 °F 60% 29.98 in 10.0 mi NW 10.4 mph 19.6 mph N/A   Overcast
11:55 PM 33.8 °F 23.9 °F 19.4 °F 56% 29.99 in 10.0 mi NNW 15.0 mph 20.7 mph N/A   Overcast